TimeCST,TemperatureF,Dew PointF,Humidity,Sea Level PressureIn,VisibilityMPH,Wind Direction,Wind SpeedMPH,Gust SpeedMPH,PrecipitationIn,Events,Conditions,WindDirDegrees,DateUTC
12:53 AM,14.0,7.0,74,30.17,10.0,NNE,9.2,-,N/A,,Overcast,30,2013-02-02 06:53:00
1:53 AM,12.9,7.0,77,30.18,10.0,NNE,5.8,-,N/A,,Overcast,30,2013-02-02 07:53:00
2:53 AM,12.0,6.1,77,30.20,10.0,NE,6.9,-,N/A,,Overcast,40,2013-02-02 08:53:00
3:53 AM,10.9,3.9,73,30.21,10.0,NNE,3.5,-,N/A,,Overcast,30,2013-02-02 09:53:00
4:53 AM,10.0,3.0,73,30.21,10.0,NE,4.6,-,N/A,,Overcast,50,2013-02-02 10:53:00
5:53 AM,8.6,1.4,73,30.12,10.0,NE,4.6,-,N/A,,Overcast,40,2013-02-02 11:53:00
6:53 AM,8.1,1.9,76,30.20,9.0,Calm,Calm,-,0.00,Snow,Light Snow,0,2013-02-02 12:53:00
7:25 AM,6.8,1.4,79,30.11,2.5,SE,4.6,-,0.00,Snow,Light Snow,140,2013-02-02 13:25:00
7:32 AM,6.8,1.4,79,30.11,3.0,SSE,4.6,-,0.00,Snow,Light Snow,160,2013-02-02 13:32:00
7:48 AM,6.8,1.4,79,30.10,9.0,SSE,3.5,-,0.00,,Overcast,150,2013-02-02 13:48:00
7:53 AM,7.0,1.9,80,30.19,10.0,SSE,4.6,-,0.00,,Overcast,160,2013-02-02 13:53:00
8:30 AM,8.6,3.2,79,30.10,10.0,SSE,5.8,-,N/A,,Overcast,160,2013-02-02 14:30:00
8:53 AM,9.0,3.0,77,30.17,9.0,South,6.9,-,0.00,Snow,Light Snow,170,2013-02-02 14:53:00
9:11 AM,8.6,3.2,79,30.09,2.5,South,5.8,-,0.00,Snow,Light Snow,170,2013-02-02 15:11:00
9:27 AM,10.4,3.2,73,30.09,1.8,South,5.8,-,0.00,Snow,Light Snow,170,2013-02-02 15:27:00
9:37 AM,10.4,5.0,79,30.10,1.0,South,4.6,-,0.01,Snow,Light Snow,170,2013-02-02 15:37:00
9:53 AM,10.0,5.0,80,30.17,1.5,South,6.9,-,0.01,Snow,Light Snow,170,2013-02-02 15:53:00
10:02 AM,10.4,5.0,79,30.09,1.8,SSE,8.1,-,0.00,Snow,Light Snow,160,2013-02-02 16:02:00
10:09 AM,10.4,5.0,79,30.09,2.5,SSE,6.9,-,0.00,Snow,Light Snow,150,2013-02-02 16:09:00
10:17 AM,10.4,5.0,79,30.09,5.0,SSE,8.1,-,0.00,,Haze,160,2013-02-02 16:17:00
10:28 AM,10.4,5.0,79,30.09,10.0,South,8.1,-,0.00,,Overcast,170,2013-02-02 16:28:00
10:53 AM,10.9,6.1,81,30.14,10.0,SSE,10.4,-,0.00,,Overcast,150,2013-02-02 16:53:00
11:53 AM,12.9,8.1,81,30.09,10.0,South,13.8,-,0.00,,Overcast,170,2013-02-02 17:53:00
12:35 PM,15.8,8.6,73,29.98,10.0,South,17.3,-,N/A,,Mostly Cloudy,180,2013-02-02 18:35:00
12:44 PM,15.8,10.4,79,29.98,10.0,South,15.0,-,N/A,,Overcast,190,2013-02-02 18:44:00
12:53 PM,15.1,10.0,80,30.04,1.8,South,16.1,-,0.00,Snow,Light Snow,190,2013-02-02 18:53:00
12:58 PM,15.8,10.4,79,29.97,0.8,South,15.0,-,0.00,Snow,Light Snow,180,2013-02-02 18:58:00
1:08 PM,15.8,10.4,79,29.96,0.5,South,13.8,-,0.01,Fog-Snow,Snow,180,2013-02-02 19:08:00
1:22 PM,15.8,10.4,79,29.95,1.5,South,12.7,-,0.01,Snow,Light Snow,180,2013-02-02 19:22:00
1:26 PM,15.8,12.2,86,29.95,2.5,South,13.8,-,0.02,Snow,Light Snow,190,2013-02-02 19:26:00
1:30 PM,17.6,12.2,79,29.94,1.2,South,13.8,-,0.02,Snow,Light Snow,190,2013-02-02 19:30:00
1:33 PM,17.6,12.2,79,29.94,0.8,South,15.0,-,0.02,Snow,Light Snow,190,2013-02-02 19:33:00
1:45 PM,17.6,12.2,79,29.93,1.5,South,11.5,-,0.02,Snow,Light Snow,190,2013-02-02 19:45:00
1:53 PM,17.1,12.0,81,30.00,1.2,SSW,11.5,-,0.02,Snow,Light Snow,200,2013-02-02 19:53:00
2:02 PM,17.6,12.2,79,29.93,2.0,SSW,9.2,-,0.01,Snow,Light Snow,210,2013-02-02 20:02:00
2:06 PM,17.6,12.2,79,29.93,3.0,South,11.5,-,0.01,Snow,Light Snow,190,2013-02-02 20:06:00
2:47 PM,19.4,15.8,86,29.91,10.0,SW,8.1,-,0.01,,Overcast,220,2013-02-02 20:47:00
2:53 PM,19.9,16.0,85,29.99,10.0,SSW,11.5,-,0.01,,Overcast,200,2013-02-02 20:53:00
3:02 PM,21.2,17.6,86,29.91,10.0,SSW,10.4,-,N/A,,Overcast,200,2013-02-02 21:02:00
3:13 PM,24.8,19.4,80,29.90,10.0,SSW,11.5,-,N/A,,Mostly Cloudy,210,2013-02-02 21:13:00
3:53 PM,25.0,19.9,81,29.98,10.0,West,10.4,-,N/A,,Mostly Cloudy,270,2013-02-02 21:53:00
4:14 PM,33.8,24.8,70,29.91,10.0,WNW,20.7,27.6,N/A,,Mostly Cloudy,300,2013-02-02 22:14:00
4:53 PM,32.0,25.0,75,30.00,3.0,NW,32.2,39.1,0.00,,Partly Cloudy,310,2013-02-02 22:53:00
4:58 PM,32.0,24.8,75,29.94,1.8,NW,29.9,39.1,0.00,,Partly Cloudy,320,2013-02-02 22:58:00
5:07 PM,30.2,24.8,80,29.96,0.8,NW,40.3,50.6,0.00,,Mostly Cloudy,320,2013-02-02 23:07:00
5:21 PM,28.4,23.0,80,29.97,1.0,NW,28.8,44.9,0.00,,Overcast,310,2013-02-02 23:21:00
5:30 PM,28.4,23.0,80,29.99,1.8,NW,27.6,35.7,0.00,,Overcast,310,2013-02-02 23:30:00
5:34 PM,28.4,23.0,80,29.99,2.0,NW,26.5,35.7,0.00,,Overcast,320,2013-02-02 23:34:00
5:45 PM,26.6,21.2,80,30.02,1.8,NW,33.4,42.6,0.00,,Overcast,320,2013-02-02 23:45:00
5:53 PM,26.1,19.9,78,30.09,1.2,NW,34.5,40.3,0.00,,Overcast,320,2013-02-02 23:53:00
5:58 PM,26.6,19.4,74,30.02,2.0,NNW,34.5,44.9,0.00,,Overcast,330,2013-02-02 23:58:00
6:09 PM,24.8,19.4,80,30.03,3.0,NNW,27.6,40.3,0.00,,Overcast,330,2013-02-03 00:09:00
6:16 PM,24.8,17.6,74,30.04,2.5,NW,33.4,42.6,N/A,Snow,Blowing Snow,320,2013-02-03 00:16:00
6:22 PM,24.8,17.6,74,30.04,3.0,NNW,25.3,42.6,0.00,Snow,Blowing Snow,330,2013-02-03 00:22:00
6:53 PM,21.9,16.0,78,30.13,2.5,NNW,34.5,44.9,0.01,,Overcast,330,2013-02-03 00:53:00
6:56 PM,21.2,15.8,80,30.05,1.8,NNW,29.9,44.9,0.00,,Overcast,330,2013-02-03 00:56:00
7:02 PM,21.2,15.8,80,30.05,2.5,NNW,26.5,40.3,0.00,Snow,Blowing Snow,330,2013-02-03 01:02:00
7:09 PM,21.2,15.8,80,30.05,6.0,NNW,25.3,33.4,N/A,Snow,Blowing Snow,330,2013-02-03 01:09:00
7:17 PM,21.2,14.0,74,30.05,4.0,NNW,28.8,35.7,0.00,,Scattered Clouds,330,2013-02-03 01:17:00
7:53 PM,19.0,12.0,74,30.16,10.0,NW,23.0,27.6,0.00,,Clear,320,2013-02-03 01:53:00
8:53 PM,17.1,10.0,74,30.18,10.0,NNW,17.3,-,N/A,,Clear,330,2013-02-03 02:53:00
9:53 PM,14.0,8.1,77,30.20,10.0,NNW,15.0,-,N/A,,Clear,330,2013-02-03 03:53:00
10:53 PM,12.0,5.0,73,30.23,10.0,NW,11.5,-,N/A,,Clear,320,2013-02-03 04:53:00
11:53 PM,9.0,3.0,77,30.24,10.0,NW,10.4,-,N/A,,Clear,310,2013-02-03 05:53:00